[Iaude] MPEC L96: 2016 TQ56 [a=1.58,e=0.43,i=6.7,H=23.98]
    mpec at cfa.harvard.edu 
    mpec at cfa.harvard.edu
       
    Sun Jun  9 10:12:01 EDT 2024
    
    
  
M.P.E.C. 2024-L96                                  Issued 2024 June 9, 14:10 UT
     The Minor Planet Electronic Circulars contain information on unusual
         minor planets, routine data on comets and natural satellites,
         and occasional editorial announcements.  They are published
    on behalf of Division F of the International Astronomical Union by the
          Minor Planet Center, Smithsonian Astrophysical Observatory,
                          Cambridge, MA 02138, U.S.A.
			  
             Prepared using the Tamkin Foundation Computer Network
                              MPC at CFA.HARVARD.EDU
            URL https://www.minorplanetcenter.net/    ISSN 1523-6714
                                   2016 TQ56                                    
                           Revision to MPEC 2016-T152                           
Additional Observations:
     K16T56Q 1C2024 06 02.33042 16 39 57.57 +16 53 54.1          21.8 GVEL096G96
     K16T56Q 1C2024 06 02.33557 16 39 57.64 +16 54 26.6          21.2 GVEL096G96
     K16T56Q 1C2024 06 02.34071 16 39 57.65 +16 54 59.6          21.1 GVEL096G96
     K16T56Q 1C2024 06 02.34584 16 39 57.72 +16 55 33.0          20.8 GVEL096G96
     K16T56Q  C2024 06 08.48855716 44 09.986+29 39 32.26         20.91wXEL096F52
     K16T56Q  C2024 06 08.50160216 44 10.332+29 41 21.43         21.27wXEL096F52
     K16T56Q  C2024 06 08.51468116 44 10.711+29 43 10.96         21.67wXEL096F52
     K16T56Q  C2024 06 08.52772916 44 11.104+29 45 00.53         21.16wXEL096F52
Observer details:
F52 Pan-STARRS 2, Haleakala.  Observers J. Herman, T. Lowe, P. Minguez, A.
    Schultz, I. Smith.  Measurers K. Chambers, T. de Boer, J. Fairlamb, H.
    Gao, M. Huber, C.-C. Lin, E. Magnier, Y. Ramanjooloo, R. Wainscoat, R.
    Weryk.  1.8-m Ritchey-Chretien + CCD.
G96 Mt. Lemmon Survey.  Observer J. B. Fazekas.  Measurers B. Gray, D. Rankin,
    F. C. Shelly.  1.5-m reflector + 10K CCD.
First and last observations above in comparison with prediction:
Residuals in seconds of arc (or zero decimals in degrees), reference and Delta-T
240602 G96   20-    2-    240608 F52   25-    4-    MPO704121   -2.12 days
Orbital elements:
2016 TQ56                                                Earth MOID = 0.0268 AU
Epoch 2024 Mar. 31.0 TT = JDT 2460400.5                 Veres                   
M 297.98403              (2000.0)            P               Q                  
n   0.49707891     Peri.  116.78472     +0.80298634     +0.59365110             
a   1.5782864      Node   206.89800     -0.57985559     +0.75767169             
e   0.4325235      Incl.    6.70644     -0.13776947     +0.27113092             
P   1.98           H   23.98          G   0.15           U   0                  
Residuals in seconds of arc
161010 G96  0.1+  0.1-    161013 G96  0.1-  0.2+    161021 G96  0.1-  0.1+
161010 G96  0.0   0.0     161013 H36  0.1+  0.0     161021 G96  0.0   0.7+
161012 G96  0.0   0.0     161013 H36  0.1-  0.2-    161021 G96  0.1+  0.7+
161012 G96  0.1-  0.2-    161013 H36  0.2-  0.3-    161021 G96  0.1+  0.9+
161012 G96  0.0   0.1-    161013 G96  0.3-  0.1-    161022 H21  1.0+  0.6-
161012 G96  0.0   0.1-    161013 G96  0.1+  0.1-    161022 H21  0.1-  0.3-
161012 G96  0.1-  0.1+    161013 G96  1.3-  1.2-    161026 I52  0.8-  0.1+
161012 G96  0.1+  0.1+    161013 G96  0.4-  1.1+    161026 I52  1.4-  0.5-
161012 G96  0.2-  0.0     161013 H36  0.2-  0.3-    161026 I52  0.4-  0.3+
161012 G96  0.1+  0.0     161014 I52  0.9-  0.1-    161029 691  0.2-  0.4-
161012 595  0.6+  0.4+    161014 I52  0.5-  0.2+    161029 691  0.1+  0.1+
161012 595  0.7+  0.3+    161014 I52  0.4-  0.1+    161029 691  0.8-  0.7-
161012 595  0.3+  0.4-    161014 I52  0.0   0.1-    240602 G96  0.1+  0.5+
161013 926  0.0   0.0     161015 204  0.1-  0.3-    240602 G96  0.4+  0.2-
161013 926  0.2-  0.0     161015 204  0.1+  0.4+    240602 G96  0.2-  0.3-
161013 926  0.0   0.1-    161015 204  0.1-  0.3+    240602 G96  0.1+  0.0
161013 691 (0.2+  1.2-)   161020 926  0.2+  0.2-    240608 F52  0.0   0.3+
161013 691 (0.0   1.8-)   161020 926  0.2+  0.0     240608 F52  0.1-  0.1-
161013 691 (0.5-  2.2-)   161020 691  0.2+  0.2+    240608 F52  0.0   0.2-
161013 G96  0.3-  0.3+    161020 926  0.4+  0.1+    240608 F52  0.0   0.0
161013 G96  0.0   0.3+    161020 691  0.3-  0.5-
161013 G96  0.1+  0.3+    161020 691  0.1+  0.6-
Ephemeris:
2016 TQ56                a,e,i = 1.58, 0.43, 7                   q = 0.8956
Date    TT    R. A. (2000) Decl.     Delta      r    Elong.  Phase     V
2024 05 10    16 30 54.2 -08 22 09   0.2914  1.2844   157.9    17.2    22.8
...
2024 05 25    16 36 31.5 +04 34 31   0.1906  1.1864   153.5    22.4    21.8
...
2024 06 02    16 39 48.0 +16 18 45   0.1501  1.1355   141.5    33.8    21.5
...
2024 06 08    16 43 45.8 +28 30 52   0.1271  1.0985   128.4    46.4    21.5
2024 06 09    16 44 41.2 +30 52 22   0.1240  1.0925   125.9    48.8    21.5
2024 06 10    16 45 43.2 +33 19 29   0.1212  1.0865   123.3    51.4    21.5
...
2024 06 16    16 55 35.8 +49 48 11   0.1091  1.0516   106.2    68.0    21.7
...
2024 06 24    17 41 54.7 +73 43 57   0.1082  1.0084    82.7    91.2    22.4
...
2024 07 09    03 45 55.9 +69 13 50   0.1476  0.9423    56.1   116.5    24.3
A. U. Tomatic                (C) Copyright 2024 MPC           M.P.E.C. 2024-L96
    
    
More information about the Iaude
mailing list